Location: ČR
(50.0000°N, 15.0000°E)
Time: 07:07:37
(UTC+02:00)

A-11 Canister half - Pass Details

Date: 24 March 2026
Orbit: 1514 x 1685 km, 47.2° (Epoch: 18 April)

Event Time Altitude Azimuth Distance (km) Brightness Sun altitude
Rises 18:46:57 0° 289° (WNW) 4,922 13.9 -5.3°
Reaches altitude 10° 18:50:49 10° 277° (W) 3,943 13.0 -5.9°
Maximum altitude 18:58:26 25° 228° (SW) 2,923 11.0 -7.1°
Drops below altitude 10° 19:06:04 10° 178° (S) 3,928 11.0 -8.3°
Sets 19:09:56 0° 166° (SSE) 4,899 11.4 -8.9°
